This is the latest recevied weather packets stored in our database for station/object F4GCF-13. If no packets are shown the sender has not sent any weather packets the latest 10 day(s).
| Time | Temp. | Humidity | Pressure | Rain* | Wind** | Luminosity | Snow |
|---|---|---|---|---|---|---|---|
| 1777204357 | 20.56° C | 63% | 1022 hPa | 0 mm | - | - | - |
| 1777203758 | 20.56° C | 65% | 1022 hPa | 0 mm | - | - | - |
| 1777201956 | 20° C | 67% | 1022 hPa | 0 mm | - | - | - |
| 1777201358 | 19.44° C | 65% | 1022 hPa | 0 mm | - | - | - |
| 1777200757 | 19.44° C | 67% | 1023 hPa | 0 mm | - | - | - |
| 1777200157 | 19.44° C | 66% | 1023 hPa | 0 mm | - | - | - |
| 1777199558 | 20° C | 68% | 1023 hPa | 0 mm | - | - | - |
| 1777198958 | 20° C | 71% | 1023 hPa | 0 mm | - | - | - |
| 1777198657 | 19.44° C | 72% | 1023 hPa | 0 mm | - | - | - |
| 1777198357 | 19.44° C | 73% | 1023 hPa | 0 mm | - | - | - |
| 1777197809 | 18.33° C | 75% | 1023 hPa | 0 mm | - | - | - |
| 1777197757 | 18.33° C | 75% | 1023 hPa | 0 mm | - | - | - |
| 1777197199 | 17.22° C | 75% | 1023 hPa | 0 mm | - | - | - |
| 1777197157 | 17.22° C | 75% | 1023 hPa | 0 mm | - | - | - |
| 1777196558 | 17.22° C | 76% | 1023 hPa | 0 mm | - | - | - |
| 1777195958 | 17.22° C | 76% | 1023 hPa | 0 mm | - | - | - |
| 1777195659 | 17.22° C | 77% | 1023 hPa | 0 mm | - | - | - |
| 1777195357 | 17.78° C | 77% | 1024 hPa | 0 mm | - | - | - |
| 1777194757 | 17.22° C | 79% | 1024 hPa | 0 mm | - | - | - |
| 1777194457 | 17.22° C | 79% | 1024 hPa | 0 mm | - | - | - |
| 1777193857 | 16.67° C | 81% | 1024 hPa | 0 mm | - | - | - |
| 1777193557 | 16.67° C | 81% | 1024 hPa | 0 mm | - | - | - |
| 1777192958 | 16.67° C | 82% | 1024 hPa | 0 mm | - | - | - |
| 1777192357 | 16.11° C | 82% | 1024 hPa | 0 mm | - | - | - |
| 1777192057 | 16.11° C | 83% | 1024 hPa | 0 mm | - | - | - |
* Rain latest hour (hover to see other rain measurements)
** Current wind speed in m/s (hover to see current wind gust speed)